Flag for Liberia Weather past 2 weeks in Gbarnga, Liberia

Now
77 °F

Passing clouds.


Feels Like: 78 °F
Forecast: 69 / 79 °F
Wind: No wind

Location: Roberts Field

Current Time: Aug 3, 2015 at 12:26:21 AM

Latest Report: Aug 3, 2015 at 12:00 AM


Visibility: N/A

Pressure: 29.98 "Hg

Humidity: 94%

Dew point: 75 °F

Location of GbarngaLocation

Historic Weather in Gbarnga — Graph

°F

Gbarnga temperature yesterday

Maximum temperature yesterday: 84 °F (at 12:30 PM)
Minimum temperature yesterday: 77 °F (at 10:00 PM)
Average temperature yesterday: 80 °F

Past Weeks' High & Low Weather Summary

 TemperatureHumidityPressure
High84 °F (Jul 26, 12:30 PM)100% (Jul 21, 3:30 AM)30.04 "Hg (Jul 21, 3:30 AM)
Low70 °F (Jul 29, 6:30 AM)62% (Jul 29, 12:30 PM)29.89 "Hg (Aug 2, 4:30 PM)
Average77 °F88%29.97 "Hg
* Reported Jul 18 11:00 PM — Aug 2 11:00 PM, Gbarnga, Weather by CustomWeather, © 2015

Note: Actual official high and low records may vary slightly from our data, if they occured in-between our weather recording intervals... More about our weather records

Advertising

Gbarnga weather history for previous 24 hours

 ConditionsComfort  
Time TempWeatherWind HumidityBarometerVisibility
11:00 PM
Sun, Aug 2
77 °FPassing clouds.No wind94%29.95 "HgN/A
10:30 PM77 °FPassing clouds.No wind94%29.95 "HgN/A
10:00 PM77 °FPassing clouds.No wind94%29.95 "HgN/A
9:30 PM79 °FPassing clouds.No wind89%29.95 "HgN/A
9:00 PM79 °FPassing clouds.No wind89%29.95 "HgN/A
8:30 PM79 °FPassing clouds.No wind89%29.92 "HgN/A
8:00 PM79 °FPassing clouds.No wind89%29.92 "HgN/A
7:30 PM79 °FPartly sunny.No wind89%29.92 "HgN/A
7:00 PM79 °FPartly sunny.5 mph89%29.92 "HgN/A
6:30 PM79 °FPartly sunny.6 mph89%29.89 "HgN/A
6:00 PM81 °FPartly sunny.9 mph84%29.89 "HgN/A
5:30 PM81 °FPartly sunny.8 mph84%29.89 "HgN/A
5:00 PM82 °FPartly sunny.13 mph79%29.89 "HgN/A
4:30 PM82 °FPartly sunny.10 mph79%29.89 "HgN/A
4:00 PM82 °FPartly sunny.10 mph79%29.92 "HgN/A
3:30 PM82 °FPartly sunny.10 mph79%29.92 "HgN/A
3:00 PM84 °FPartly sunny.9 mph79%29.92 "HgN/A
2:30 PM82 °FPartly sunny.8 mph84%29.92 "HgN/A
2:00 PM81 °FRain. Partly sunny.8 mph84%29.95 "HgN/A
1:30 PM81 °FLight rain. Partly sunny.9 mph84%29.95 "Hg5 mi
1:00 PM82 °FPartly sunny.12 mph79%29.98 "HgN/A
12:30 PM84 °FPartly sunny.9 mph74%29.98 "HgN/A
11:00 AM82 °FPartly sunny.No wind79%29.98 "HgN/A
Weather by CustomWeather, © 2015

See weather overviewHow to use our weather pages